Regional Weather Roundup
Issued by NWS

Home | Current Version | Previous Version | Graphics & Text | Print | Product List | Glossary On
Versions: 1 2 3 4 5 6 7 8 9 10 11 12 13 14 15 16 17 18 19 20 21 22 23 24 25 26 27 28 29 30 31 32 33 34 35 36 37 38 39 40 41 42 43 44 45 46 47 48 49 50
000
ASUS43 KMKX 162300
RWRWI

WISCONSIN REGIONAL WEATHER ROUNDUP
NATIONAL WEATHER SERVICE MILWAUKEE/SULLIVAN WI
600 PM CDT MON OCT 16 2017

NOTE: "FAIR" INDICATES FEW OR NO CLOUDS BELOW 12,000 FEET WITH NO
SIGNIFICANT WEATHER AND/OR OBSTRUCTIONS TO VISIBILITY.

WIZ001-002-006>008-014>016-023>028-170000-
NORTHWEST WISCONSIN

CITY           SKY/WX    TMP DP  RH WIND       PRES   REMARKS
SUPERIOR ARPT  PTCLDY    60  36  39 SW15G21   29.94F
ASHLAND        PTCLDY    57  34  41 S10       29.97F
HAYWARD        CLEAR     55  34  45 S13       30.01F
SIREN          CLEAR     59  34  38 SW10      30.01F
CUMBERLAND     CLEAR     55  34  44 S7        30.03F
RICE LAKE      CLEAR     59  33  38 S6        30.05F
CHETEK         CLEAR     59  35  40 S3        30.05F
LADYSMITH      CLEAR     57  35  43 S9        30.07F
EAU CLAIRE     NOT AVBL
MENOMONIE      CLEAR     61  34  35 S8        30.06F
NEW RICHMOND   CLEAR     60  34  37 S9        30.03F
OSCEOLA        CLEAR     62  36  37 S7        30.04F
$$

WIZ003>005-009-010-017-018-170000-
NORTH CENTRAL WISCONSIN

CITY           SKY/WX    TMP DP  RH WIND       PRES   REMARKS
MANITOWISH WTR CLEAR     54  32  43 SW7       30.03F
ARBOR VITAE    CLEAR     55  34  46 SW5       30.05S
WOODRUFF       CLEAR     55  34  46 SW5       30.05S
RHINELANDER    CLEAR     52  34  50 SW6       30.07F
EAGLE RIVER    CLEAR     53  32  44 SW9       30.05S
LAND O LAKES   CLEAR     54  33  45 SW8       30.05F
PHILLIPS       CLEAR     54  33  45 SW8       30.04F
TOMAHAWK       CLEAR     53  32  45 SW3       30.08F
MEDFORD        CLEAR     55  33  44 SW6       30.08F
MERRILL        CLEAR     56  34  44 SW9       30.10S
$$

WIZ029-030-035-036-043>047-170000-
CENTRAL WISCONSIN

CITY           SKY/WX    TMP DP  RH WIND       PRES   REMARKS
WAUSAU         CLEAR     54  36  50 SW8       30.08F
MOSINEE        NOT AVBL
MARSHFIELD     CLEAR     53  34  48 SW8       30.09F
STEVENS POINT  CLEAR     55  33  43 SW7       30.12F
WAUPACA        CLEAR     58  37  44 SW7       30.14F
WAUTOMA        CLEAR     56  37  49 SW6       30.14F
WISC RAPIDS    CLEAR     54  38  54 SW6       30.13F
CAMP DOUGLAS   NOT AVBL
$$

WIZ011>013-019>022-031-037>040-048>050-170000-
NORTHEAST WISCONSIN

CITY           SKY/WX    TMP DP  RH WIND       PRES   REMARKS
ANTIGO         CLEAR     52  37  58 SW9       30.10F
SHAWANO        PTCLDY    59  37  44 SW3       30.11F
OCONTO         PTCLDY    56  37  47 SW6       30.12F
STURGEON BAY   CLEAR     53  38  56 S7        30.13F
GREEN BAY      CLEAR     55  41  59 S6        30.13F
MANITOWOC      CLEAR     56  36  47 SW3       30.17R
APPLETON       PTCLDY    55  34  44 SW7       30.13F
CLINTONVILLE   NOT AVBL
OSHKOSH        CLEAR     56  36  47 SW6       30.14F
$$

WIZ032>034-041-042-053>061-170000-
SOUTHWEST WISCONSIN

CITY           SKY/WX    TMP DP  RH WIND       PRES   REMARKS
LA CROSSE      CLEAR     61  37  41 S7        30.10F
SPARTA         CLEAR     59  33  37 SW3       30.13F
VIROQUA        CLEAR     60  35  39 CALM      30.14F
BOSCOBEL       CLEAR     62  32  32 S3        30.15F
PRAIRIE DU CHI CLEAR     62  32  32 S5        30.15S
PLATTEVILLE    CLEAR     61  36  39 SW7       30.18F
$$

WIZ056-057-062-063-064-067-068-170000-
SOUTH CENTRAL WISCONSIN

CITY           SKY/WX    TMP DP  RH WIND       PRES   REMARKS
REEDSBURG      CLEAR     58  39  48 SW6       30.15S
BARABOO/DELLS  CLEAR     57  35  44 SW7       30.15F
LONE ROCK      NOT AVBL
MINERAL POINT  CLEAR     61  32  33 SW6       30.18F
MADISON        PTCLDY    58  36  43 SW5       30.17F
MIDDLETON      CLEAR     60  36  40 SW6       30.18S
WATERTOWN      CLEAR     58  36  44 SW8       30.18S
MONROE         CLEAR     59  34  38 SW9       30.19S
JANESVILLE     CLEAR     55  34  44 W7        30.19S
$$

WIZ051-052-058>065-066-070>072-170000-
SOUTHEAST WISCONSIN

CITY           SKY/WX    TMP DP  RH WIND       PRES   REMARKS
MILWAUKEE      PTCLDY    60  35  39 SW6       30.19F
WAUKESHA       CLEAR     55  34  44 SW5       30.20S
MILWAUKEE/TIMM CLEAR     57  32  38 SW9       30.19F
RACINE         CLEAR     58  35  42 SW5       30.21F
BURLINGTON     CLEAR     58  37  45 SW6       30.19F
KENOSHA        CLEAR     54  37  52 SW5       30.20F
FOND DU LAC    CLEAR     56  34  43 SW6       30.16F
SHEBOYGAN      CLEAR     53  38  56 SW7       30.17S
WEST BEND      CLEAR     55  32  41 W5        30.18S
JUNEAU         CLEAR     56  37  47 SW5       30.18F
$$

LSZ147-162-170000-
LAKE SUPERIOR

STATION/POSITION TIME  TEMP    WIND        PRES    WAVE
                       AIR SEA DIR/SP/G            HT/PER
                 (UTC) (F)     (DEG/KT/KT) (MB)    (FT/S)
W MID LAKE BUOY  2150   54 53              1015.2F   3/ 5
DEVILS ISLAND    2200   56     200/  6/  8 1014.8F
SAXON HARBOR     2230   59     200/  5/ 15 1014.9F
$$

LMZ867-665-643>646-170000-
LAKE MICHIGAN

STATION/POSITION TIME  TEMP    WIND        PRES    WAVE
                       AIR SEA DIR/SP/G            HT/PER
                 (UTC) (F)     (DEG/KT/KT) (MB)    (FT/S)
S GREEN BAY BUOY 2230   58 58  230/ 12/ 14 1020.1F
N MID LAKE BUOY  2150   55 60  220/ 16/ 19 1021.1F   3/ 4
NORTHPORT PIER   2240   55     180/  3/  9 1019.3F
KEWAUNEE LAKESHO 2230   57     220/  5/  8 1020.3S
SHEBOYGAN LAKESH 2200   55     170/ 15/ 16 1021.5F
PORT WASHINGTON  2240   59     260/  4/  8 1022.7S
MILWAUKEE LAKESH 2230   60     230/ 12/ 15   N/A
S MID LAKE BUOY  2150   58 62  240/ 10/ 14 1023.3F   1/ 6
KENOSHA   LAKESH 2200   61     250/ 11/ 15 1022.4
$$

TC  - TEMPERATURE IN CELSIUS
VSB - VISIBILITY IN STATUTE MILES
WCI - WIND CHILL INDEX
HX  - HEAT INDEX





USA.gov is the U.S. government's official web portal to all federal, state and local government web resources and services.